IFC91 VOYK-VOBL

Flight info

Callsign IFC91
Flight time 0h -23m
Altitude 7000
Route BIA W70 SAI W72 VINEP W153 TELUV TELUV7F
Aircraft H160/L-SBDGRY/S

Departure

Time 2026-04-29 00:21
Airport Yelahanka Air Force Station (VOYK)

Arrival

Time 2026-04-28 23:58
Airport Kempegowda International Airport Bengaluru (VOBL)
Time Latitude Longitude Altitude Speed Heading
2026-04-28 23:58 13.13724 77.61019 3040 ft 0 kts 322°
2026-04-29 00:04 13.13725 77.61019 3040 ft 1 kts 322°
2026-04-29 00:04 13.13731 77.61016 3222 ft 1 kts 327°
2026-04-29 00:05 13.13731 77.61010 3534 ft 1 kts 327°
2026-04-29 00:05 13.13774 77.61348 3468 ft 85 kts 69°
2026-04-29 00:05 13.14193 77.61865 3328 ft 101 kts 21°
2026-04-29 00:05 13.14632 77.61999 3324 ft 94 kts
2026-04-29 00:06 13.15131 77.62110 3276 ft 94 kts 12°
2026-04-29 00:06 13.15538 77.62358 3350 ft 88 kts 33°
2026-04-29 00:07 13.16017 77.62738 3302 ft 91 kts 27°
2026-04-29 00:07 13.16542 77.63063 3263 ft 91 kts 19°
2026-04-29 00:07 13.17127 77.63317 3221 ft 90 kts 22°
2026-04-29 00:07 13.17655 77.63663 3177 ft 88 kts 24°
2026-04-29 00:08 13.18160 77.63979 3160 ft 80 kts 26°
2026-04-29 00:08 13.18596 77.64350 3146 ft 79 kts 33°
2026-04-29 00:08 13.18997 77.64634 3265 ft 33 kts 14°
2026-04-29 00:08 13.19228 77.64803 3331 ft 64 kts 41°
2026-04-29 00:09 13.19490 77.65244 3256 ft 76 kts 55°
2026-04-29 00:09 13.19800 77.65718 3232 ft 79 kts 51°
2026-04-29 00:09 13.19973 77.66206 3283 ft 68 kts 74°
2026-04-29 00:09 13.19986 77.66762 3165 ft 86 kts 89°
2026-04-29 00:10 13.19851 77.67345 3199 ft 87 kts 91°
2026-04-29 00:10 13.19806 77.67929 3240 ft 80 kts 87°
2026-04-29 00:10 13.19811 77.68510 3175 ft 84 kts 76°
2026-04-29 00:10 13.19836 77.69104 3160 ft 83 kts 84°
2026-04-29 00:11 13.19801 77.69668 3205 ft 73 kts 79°
2026-04-29 00:11 13.20129 77.70039 3194 ft 76 kts 34°
2026-04-29 00:11 13.20239 77.71040 3076 ft 71 kts 89°
2026-04-29 00:12 13.20256 77.71502 3059 ft 63 kts 84°
2026-04-29 00:12 13.20223 77.71824 3108 ft 6 kts 211°
2026-04-29 00:12 13.20199 77.71562 3099 ft 59 kts 271°
2026-04-29 00:12 13.20228 77.71048 3099 ft 81 kts 269°
2026-04-29 00:13 13.20253 77.70438 3089 ft 87 kts 262°
2026-04-29 00:13 13.20253 77.69843 3045 ft 75 kts 259°
2026-04-29 00:13 13.20078 77.69485 3107 ft 38 kts 234°
2026-04-29 00:13 13.19984 77.69422 3065 ft 11 kts 105°
2026-04-29 00:14 13.19977 77.69481 3063 ft 13 kts 106°
2026-04-29 00:14 13.19983 77.69557 3224 ft 5 kts 260°
2026-04-29 00:14 13.19984 77.69541 3103 ft 1 kts 267°
2026-04-29 00:14 13.19984 77.69529 3038 ft 3 kts 269°
2026-04-29 00:15 13.19983 77.69523 3020 ft 1 kts 267°
2026-04-29 00:15 13.19984 77.69522 3020 ft 0 kts 266°
2026-04-29 00:16 13.19990 77.69473 3306 ft 36 kts 279°
2026-04-29 00:16 13.20157 77.68985 3487 ft 69 kts 290°
2026-04-29 00:17 13.20539 77.68463 3519 ft 102 kts 300°
2026-04-29 00:17 13.20973 77.67842 3527 ft 114 kts 308°
2026-04-29 00:17 13.21692 77.67838 3358 ft 112 kts 43°
2026-04-29 00:17 13.22117 77.68355 3626 ft 91 kts 55°
2026-04-29 00:18 13.22678 77.68812 3465 ft 121 kts 36°
2026-04-29 00:18 13.23323 77.69439 3185 ft 131 kts 37°
2026-04-29 00:18 13.23943 77.70059 3123 ft 116 kts 43°
2026-04-29 00:18 13.24572 77.70535 3137 ft 108 kts 24°
2026-04-29 00:19 13.25275 77.70781 3166 ft 110 kts 17°
2026-04-29 00:19 13.25797 77.71341 3158 ft 111 kts 45°
2026-04-29 00:19 13.26424 77.71807 3205 ft 104 kts 22°
2026-04-29 00:19 13.27055 77.72031 3342 ft 106 kts
2026-04-29 00:20 13.27822 77.72209 3181 ft 120 kts
2026-04-29 00:20 13.28434 77.71973 3386 ft 100 kts 309°
2026-04-29 00:20 13.29036 77.71630 3509 ft 101 kts 340°
2026-04-29 00:20 13.29780 77.71469 3431 ft 114 kts 329°
2026-04-29 00:21 13.30327 77.70927 3488 ft 110 kts 305°
2026-04-29 00:21 13.30873 77.70585 3858 ft 88 kts 330°
2026-04-29 00:21 13.31525 77.70195 3627 ft 130 kts 326°
2026-04-29 00:21 13.32427 77.69798 3393 ft 132 kts 327°
2026-04-29 00:22 13.33224 77.69397 3453 ft 138 kts 322°
2026-04-29 00:22 13.34014 77.68866 3518 ft 129 kts 314°
2026-04-29 00:22 13.34604 77.68188 3562 ft 127 kts 301°
2026-04-29 00:22 13.34961 77.67427 3808 ft 121 kts 280°
2026-04-29 00:23 13.35270 77.66709 4225 ft 103 kts 301°
2026-04-29 00:23 13.35940 77.66383 4494 ft 113 kts
2026-04-29 00:23 13.36300 77.67040 4631 ft 117 kts 64°
2026-04-29 00:23 13.36663 77.67716 4590 ft 99 kts 51°
2026-04-29 00:24 13.36848 77.68181 4721 ft 49 kts 78°
2026-04-29 00:24 13.36901 77.68467 4937 ft 28 kts 72°
2026-04-29 00:24 13.36987 77.68555 4959 ft 12 kts 50°
2026-04-29 00:24 13.37022 77.68636 4873 ft 11 kts 69°
2026-04-29 00:25 13.37081 77.68625 5012 ft 19 kts 293°
2026-04-29 00:25 13.37105 77.68521 5082 ft 2 kts 139°
2026-04-29 00:25 13.37087 77.68520 5052 ft 2 kts 233°
2026-04-29 00:25 13.37080 77.68514 4927 ft 4 kts 185°
2026-04-29 00:26 13.37059 77.68515 4863 ft 5 kts 153°
2026-04-29 00:26 13.37057 77.68521 4833 ft 2 kts 136°
2026-04-29 00:26 13.37059 77.68528 4830 ft 7 kts 96°
2026-04-29 00:26 13.37055 77.68540 4826 ft 3 kts 229°
2026-04-29 00:27 13.37057 77.68533 4904 ft 4 kts 229°
2026-04-29 00:27 13.37061 77.68524 4899 ft 2 kts 111°
2026-04-29 00:27 13.37062 77.68530 4864 ft 3 kts 163°
2026-04-29 00:27 13.37056 77.68530 4832 ft 4 kts 251°
2026-04-29 00:28 13.37056 77.68534 4826 ft 0 kts 308°
2026-04-29 00:29 13.37059 77.68533 4891 ft 1 kts 311°
2026-04-29 00:29 13.37030 77.68459 5356 ft 4 kts 334°
2026-04-29 00:29 13.37177 77.68329 5509 ft 76 kts 322°
2026-04-29 00:29 13.37524 77.67733 5462 ft 90 kts 295°
2026-04-29 00:30 13.37713 77.67180 5254 ft 87 kts 261°
2026-04-29 00:30 13.37533 77.66758 4544 ft 116 kts 221°
2026-04-29 00:30 13.36796 77.65690 3839 ft 134 kts 232°
2026-04-29 00:30 13.36100 77.65120 3538 ft 127 kts 229°
2026-04-29 00:31 13.35810 77.64280 3577 ft 113 kts 252°
2026-04-29 00:31 13.35634 77.63627 3931 ft 81 kts 220°
2026-04-29 00:31 13.35038 77.63688 3874 ft 110 kts 168°
2026-04-29 00:31 13.34224 77.63537 3621 ft 116 kts 186°
2026-04-29 00:32 13.33443 77.63213 3409 ft 131 kts 205°
2026-04-29 00:32 13.32716 77.62649 3348 ft 129 kts 216°
2026-04-29 00:32 13.32036 77.62209 3606 ft 111 kts 179°
2026-04-29 00:32 13.31530 77.62767 3754 ft 110 kts 135°
2026-04-29 00:33 13.30917 77.63320 3630 ft 130 kts 134°
2026-04-29 00:33 13.30418 77.64086 3626 ft 128 kts 128°
2026-04-29 00:33 13.29808 77.64756 3501 ft 128 kts 122°
2026-04-29 00:33 13.29190 77.65357 3397 ft 131 kts 140°
2026-04-29 00:34 13.28445 77.65826 3353 ft 121 kts 149°
2026-04-29 00:34 13.27815 77.66289 3481 ft 115 kts 126°
2026-04-29 00:34 13.27139 77.66521 3761 ft 96 kts 170°
2026-04-29 00:34 13.26447 77.66701 3735 ft 117 kts 186°
2026-04-29 00:35 13.25737 77.66792 3675 ft 114 kts 129°
2026-04-29 00:35 13.24980 77.67265 3397 ft 134 kts 155°
2026-04-29 00:35 13.24128 77.67549 3350 ft 118 kts 151°
2026-04-29 00:35 13.23341 77.67860 3378 ft 122 kts 160°
2026-04-29 00:36 13.22473 77.67757 3288 ft 120 kts 180°
2026-04-29 00:36 13.21793 77.67515 3562 ft 95 kts 217°
2026-04-29 00:36 13.21459 77.66982 3758 ft 101 kts 238°
2026-04-29 00:36 13.20879 77.66370 3451 ft 127 kts 218°
2026-04-29 00:37 13.20193 77.65751 3209 ft 133 kts 210°
2026-04-29 00:37 13.19558 77.65146 3213 ft 128 kts 226°
2026-04-29 00:37 13.18944 77.64492 3109 ft 130 kts 212°
2026-04-29 00:37 13.18275 77.63986 3236 ft 123 kts 213°
2026-04-29 00:38 13.17570 77.63455 3171 ft 127 kts 210°
2026-04-29 00:38 13.16775 77.63090 3127 ft 126 kts 201°
2026-04-29 00:38 13.16057 77.62604 3173 ft 124 kts 216°
2026-04-29 00:38 13.15329 77.62147 3214 ft 125 kts 203°
2026-04-29 00:39 13.14540 77.61800 3184 ft 123 kts 185°
2026-04-29 00:39 13.13717 77.61726 3232 ft 119 kts 183°
2026-04-29 00:39 13.12913 77.61431 3244 ft 123 kts 202°
2026-04-29 00:39 13.12115 77.61026 3161 ft 127 kts 195°
2026-04-29 00:40 13.11335 77.60618 3139 ft 128 kts 201°
2026-04-29 00:40 13.10562 77.60188 3123 ft 125 kts 198°
2026-04-29 00:40 13.09780 77.59867 3169 ft 125 kts 194°
2026-04-29 00:40 13.08959 77.59604 3185 ft 122 kts 191°
2026-04-29 00:41 13.08176 77.59326 3313 ft 111 kts 179°
2026-04-29 00:41 13.07688 77.59275 3412 ft 109 kts 184°
2026-04-29 00:41 13.06680 77.59390 3164 ft 103 kts 175°
2026-04-29 00:41 13.06042 77.59342 3120 ft 82 kts 174°
2026-04-29 00:42 13.05579 77.59209 3175 ft 59 kts 193°
2026-04-29 00:42 13.05343 77.59254 3254 ft 4 kts 76°
2026-04-29 00:42 13.05425 77.59309 3194 ft 47 kts 121°
2026-04-29 00:42 13.05895 77.59405 3247 ft 108 kts 357°
2026-04-29 00:43 13.06723 77.59334 3264 ft 103 kts 348°
2026-04-29 00:43 13.07454 77.59406 3338 ft 111 kts 11°
2026-04-29 00:43 13.08288 77.59405 3260 ft 124 kts
2026-04-29 00:43 13.09038 77.59729 3233 ft 110 kts 23°
2026-04-29 00:44 13.09783 77.59871 3133 ft 111 kts 15°
2026-04-29 00:44 13.10479 77.60043 3195 ft 105 kts
2026-04-29 00:44 13.11129 77.60222 3258 ft 94 kts 20°
2026-04-29 00:44 13.11655 77.60611 3322 ft 95 kts 57°
2026-04-29 00:45 13.12162 77.61105 3327 ft 114 kts 18°
2026-04-29 00:45 13.12860 77.61439 3374 ft 110 kts 13°
2026-04-29 00:45 13.13512 77.61494 3272 ft 84 kts 295°
2026-04-29 00:45 13.13688 77.61063 3158 ft 66 kts 266°
2026-04-29 00:46 13.13780 77.60608 3216 ft 64 kts 238°
2026-04-29 00:46 13.13751 77.60485 3341 ft 21 kts 117°
2026-04-29 00:46 13.13690 77.60687 3202 ft 40 kts 96°
2026-04-29 00:46 13.13692 77.61020 3151 ft 52 kts 208°
2026-04-29 00:47 13.13689 77.61064 3091 ft 2 kts 334°
2026-04-29 00:47 13.13712 77.61056 3103 ft 1 kts 34°
2026-04-29 00:47 13.13715 77.61062 3059 ft 1 kts 34°
2026-04-29 00:47 13.13717 77.61067 3038 ft 0 kts 33°